EW8865 Weather Reports


time (UTC)temp
F
wind
direction
speed
knots
gust
knots
rain 1hr
in
rain 24hr
in
rain mn
in
humidity
%
barometer
mb
20260906224003 64 209 1.7 2.6 0.00 0.06 0.06 88 1015.4
20260906223503 64 209 1.7 2.6 0.00 0.06 0.06 88 1015.4
20260906223003 64 207 1.7 2.6 0.00 0.06 0.06 88 1015.4
20260906222503 64 206 0.9 2.6 0.00 0.06 0.06 88 1015.4
20260906222004 64 205 0.9 2.6 0.00 0.06 0.06 88 1015.4
20260906221504 64 205 1.7 2.6 0.00 0.06 0.06 87 1015.5
20260906221004 64 204 1.7 2.6 0.00 0.06 0.06 87 1015.5
20260906220503 64 202 1.7 2.6 0.00 0.06 0.06 87 1015.4
20260906220004 65 202 0.9 2.6 0.00 0.06 0.06 87 1015.4
20260906215504 65 202 1.7 2.6 0.00 0.06 0.06 87 1015.4
20260906215004 65 203 1.7 2.6 0.00 0.06 0.06 87 1015.5
20260906214503 65 205 1.7 4.3 0.00 0.06 0.06 87 1015.6
20260906214004 65 211 1.7 2.6 0.00 0.06 0.06 87 1015.5
20260906213504 65 250 0.9 2.6 0.00 0.06 0.06 87 1015.5
20260906213004 65 250 0.9 4.3 0.00 0.06 0.06 86 1015.6
20260906212503 65 242 2.6 2.6 0.00 0.06 0.06 86 1015.5
20260906212003 65 243 1.7 4.3 0.00 0.06 0.06 86 1015.5
20260906211003 65 224 4.3 5.2 0.00 0.06 0.06 85 1015.5
20260906210004 65 220 2.6 5.2 0.00 0.06 0.06 84 1015.5
20260906205003 65 213 2.6 4.3 0.00 0.06 0.06 83 1015.5
20260906204504 65 219 2.6 4.3 0.00 0.06 0.06 83 1015.6
20260906204004 65 233 2.6 2.6 0.00 0.06 0.06 82 1015.6
20260906203504 66 239 3.5 7.0 0.00 0.06 0.06 82 1015.6
20260906203004 66 223 4.3 7.0 0.00 0.06 0.06 82 1015.6
20260906202004 66 233 1.7 2.6 0.00 0.06 0.06 80 1015.6
20260906201504 66 234 2.6 6.1 0.00 0.06 0.06 80 1015.7
20260906201004 66 221 2.6 6.1 0.00 0.06 0.06 80 1015.7
20260906200503 67 217 4.3 7.0 0.00 0.06 0.06 79 1015.7
20260906195504 67 219 3.5 5.2 0.00 0.06 0.06 77 1015.6
20260906194503 67 233 4.3 7.0 0.00 0.06 0.06 75 1015.6
20260906194004 68 250 4.3 7.0 0.00 0.06 0.06 75 1015.5
20260906193504 68 242 3.5 7.0 0.00 0.06 0.06 74 1015.4
20260906193004 68 226 3.5 7.0 0.00 0.06 0.06 74 1015.4
20260906192503 69 239 4.3 6.1 0.00 0.06 0.06 73 1015.5
20260906191503 69 240 6.1 8.7 0.00 0.06 0.06 71 1015.4
20260906191004 70 204 4.3 7.8 0.00 0.06 0.06 70 1015.3
20260906190504 70 186 2.6 7.8 0.00 0.06 0.06 69 1015.2
20260906190004 70 169 4.3 11.3 0.00 0.06 0.06 69 1015.2
20260906185504 70 219 3.5 6.1 0.00 0.06 0.06 68 1015.1
20260906185003 71 175 3.5 7.0 0.00 0.06 0.06 67 1014.9
20260906184503 71 182 2.6 7.0 0.00 0.06 0.06 67 1014.8
20260906184003 71 180 6.1 12.2 0.00 0.06 0.06 66 1014.7
20260906183503 71 136 4.3 8.7 0.00 0.06 0.06 65 1014.7
20260906183004 72 146 2.6 10.4 0.00 0.06 0.06 64 1014.6
20260906182504 72 132 4.3 7.0 0.00 0.06 0.06 63 1014.6
20260906181503 72 144 3.5 8.7 0.00 0.06 0.06 62 1014.6
20260906180503 73 172 4.3 7.0 0.00 0.06 0.06 60 1014.7
20260906180004 73 144 4.3 7.8 0.00 0.06 0.06 60 1014.6
20260906175503 73 177 4.3 7.8 0.00 0.06 0.06 59 1014.7
20260906175003 74 132 3.5 10.4 0.00 0.06 0.06 59 1014.7
20260906174503 74 159 2.6 10.4 0.00 0.06 0.06 58 1014.7
20260906174003 74 139 2.6 10.4 0.00 0.06 0.06 57 1014.8
20260906173004 75 158 2.6 7.0 0.00 0.06 0.06 55 1014.8
20260906172504 75 141 4.3 7.8 0.00 0.06 0.06 55 1014.9
20260906172004 76 139 6.1 13.0 0.00 0.06 0.06 53 1014.9
20260906171503 76 121 4.3 7.8 0.00 0.06 0.06 52 1014.9
20260906170503 77 185 5.2 10.4 0.00 0.06 0.06 50 1014.9
20260906170004 78 178 2.6 7.8 0.00 0.06 0.06 50 1014.8
20260906165504 78 138 2.6 7.8 0.00 0.06 0.06 50 1014.9
20260906165004 78 147 4.3 10.4 0.00 0.06 0.06 49 1014.9
20260906164503 78 183 2.6 6.1 0.00 0.06 0.06 48 1014.9
20260906164004 78 157 5.2 13.0 0.00 0.06 0.06 47 1014.9
20260906163503 79 163 7.8 17.4 0.00 0.06 0.06 46 1015.0
20260906163004 79 164 2.6 7.8 0.00 0.06 0.06 48 1015.0
20260906162003 79 148 5.2 11.3 0.00 0.06 0.06 47 1015.0
20260906161004 78 171 6.1 12.2 0.00 0.06 0.06 46 1015.2
20260906155503 78 128 4.3 10.4 0.00 0.06 0.06 46 1015.3
20260906154503 79 129 7.0 12.2 0.00 0.06 0.06 44 1015.5
20260906154003 80 160 5.2 11.3 0.00 0.06 0.06 44 1015.6
20260906152504 80 143 4.3 10.4 0.00 0.06 0.06 44 1015.7
20260906152004 80 167 3.5 11.3 0.00 0.06 0.06 45 1015.8
20260906151504 80 143 3.5 7.8 0.00 0.06 0.06 46 1015.8
20260906151004 80 157 5.2 13.0 0.00 0.06 0.06 46 1015.8
20260906150503 79 187 5.2 10.4 0.00 0.06 0.06 46 1015.9
20260906150003 79 166 5.2 13.0 0.00 0.06 0.06 46 1016.0
20260906145504 79 179 5.2 13.9 0.00 0.06 0.06 44 1016.0
20260906145004 80 194 7.8 14.8 0.00 0.06 0.06 44 1016.1
20260906144504 80 190 6.1 10.4 0.00 0.06 0.06 44 1016.2
20260906144004 80 166 5.2 13.0 0.00 0.06 0.06 44 1016.3
20260906143504 80 153 7.0 15.6 0.00 0.06 0.06 44 1016.4
20260906142504 80 142 6.1 10.4 0.00 0.06 0.06 46 1016.6
20260906141504 80 137 4.3 10.4 0.00 0.06 0.06 46 1016.8
20260906141003 80 150 5.2 11.3 0.00 0.06 0.06 48 1016.9
20260906140004 80 185 6.1 13.9 0.00 0.06 0.06 48 1017.1
20260906135504 80 203 6.1 11.3 0.00 0.06 0.06 49 1017.0
20260906135003 79 150 6.1 11.3 0.00 0.06 0.06 48 1017.0
20260906134504 79 145 6.1 13.9 0.00 0.06 0.06 48 1017.1
20260906133503 78 177 3.5 10.4 0.00 0.06 0.06 51 1017.2
20260906133004 77 175 7.8 15.6 0.00 0.06 0.06 50 1017.3
20260906132004 76 134 5.2 8.7 0.00 0.06 0.06 56 1017.4
20260906131503 75 140 5.2 10.4 0.00 0.06 0.06 57 1017.4
20260906131004 75 126 5.2 10.4 0.00 0.06 0.06 58 1017.5
20260906130504 74 169 5.2 7.8 0.00 0.06 0.06 58 1017.5
20260906130003 74 147 6.1 14.8 0.00 0.06 0.06 58 1017.7
20260906125504 74 135 6.1 11.3 0.00 0.06 0.06 60 1017.7
20260906125004 74 139 6.1 10.4 0.00 0.06 0.06 63 1017.7
20260906124504 74 154 5.2 8.7 0.00 0.06 0.06 64 1017.8
20260906124004 73 115 6.1 10.4 0.00 0.06 0.06 63 1017.9
20260906123504 73 148 5.2 10.4 0.00 0.06 0.06 64 1018.0
20260906123004 73 160 6.1 11.3 0.00 0.06 0.06 64 1018.1
20260906122503 74 170 5.2 12.2 0.00 0.06 0.06 63 1018.3
20260906121503 75 180 7.0 13.0 0.00 0.06 0.06 63 1018.4
20260906121003 74 134 4.3 10.4 0.00 0.06 0.06 65 1018.4
20260906120504 73 163 6.1 11.3 0.00 0.06 0.06 64 1018.4
20260906115504 72 120 4.3 7.8 0.00 0.06 0.06 70 1018.4
20260906115004 71 169 5.2 10.4 0.00 0.06 0.06 70 1018.5
20260906114504 71 149 4.3 10.4 0.00 0.06 0.06 69 1018.5
20260906114003 71 185 3.5 7.0 0.00 0.06 0.06 71 1018.5
20260906113503 71 143 2.6 10.4 0.00 0.06 0.06 71 1018.6
20260906113004 71 148 2.6 6.1 0.00 0.06 0.06 71 1018.7
20260906112503 71 119 6.1 10.4 0.00 0.06 0.06 70 1018.6
20260906112004 71 139 3.5 7.8 0.00 0.06 0.06 70 1018.6
20260906111505 71 128 3.5 6.1 0.00 0.06 0.06 69 1018.7
20260906111003 72 175 2.6 10.4 0.00 0.06 0.06 68 1018.9
20260906110503 72 140 2.6 10.4 0.00 0.06 0.06 68 1019.0
20260906110003 72 127 5.2 10.4 0.00 0.06 0.06 71 1019.1
20260906105504 71 120 5.2 8.7 0.00 0.06 0.06 72 1019.3
20260906105004 70 124 5.2 10.4 0.00 0.06 0.06 71 1019.3
20260906104504 70 143 3.5 8.7 0.00 0.06 0.06 71 1019.2
20260906104004 70 128 4.3 13.0 0.00 0.06 0.06 70 1019.2
20260906103503 70 139 3.5 7.0 0.00 0.06 0.06 70 1019.3
20260906103004 70 206 3.5 10.4 0.00 0.06 0.06 69 1019.3
20260906102503 71 198 4.3 8.7 0.00 0.06 0.06 68 1019.5
20260906102003 71 128 2.6 8.7 0.00 0.06 0.06 69 1019.5
20260906101507 71 131 2.6 7.8 0.00 0.06 0.06 70 1019.5
20260906095503 70 180 2.6 7.0 0.00 0.06 0.06 72 1020.0
20260906095003 70 169 2.6 5.2 0.00 0.06 0.06 73 1019.9
20260906094504 69 178 2.6 5.2 0.00 0.06 0.06 74 1020.0
20260906093004 68 128 2.6 6.1 0.00 0.06 0.06 74 1019.9
20260906092503 68 134 4.3 6.1 0.00 0.06 0.06 75 1020.0
20260906092004 68 164 5.2 10.4 0.00 0.06 0.06 73 1020.0
20260906091503 68 170 5.2 7.8 0.00 0.06 0.06 74 1020.1
20260906091005 68 173 5.2 12.2 0.00 0.06 0.06 74 1020.1
20260906090504 67 148 6.1 10.4 0.00 0.06 0.06 75 1020.0
20260906090003 67 141 5.2 10.4 0.00 0.06 0.06 77 1020.1
20260906085504 66 198 1.7 4.3 0.00 0.06 0.06 78 1020.2
20260906085004 66 153 1.7 5.2 0.00 0.06 0.06 77 1020.3
20260906084505 66 115 1.7 8.7 0.00 0.06 0.06 77 1020.4
20260906084004 66 173 5.2 8.7 0.00 0.06 0.06 76 1020.4
20260906083503 65 128 3.5 8.7 0.00 0.06 0.06 79 1020.4
20260906083003 65 156 5.2 13.0 0.00 0.06 0.06 78 1020.4
20260906082505 64 140 4.3 11.3 0.00 0.06 0.06 80 1020.3
20260906082004 64 143 6.1 10.4 0.00 0.06 0.06 80 1020.4
20260906081504 64 172 2.6 10.4 0.00 0.06 0.06 81 1020.3
20260906080504 63 150 4.3 7.8 0.00 0.06 0.06 81 1020.3
20260906075503 62 181 3.5 6.1 0.00 0.06 0.06 84 1020.3
20260906075003 62 114 3.5 10.4 0.00 0.06 0.06 85 1020.3
20260906074503 62 94 5.2 10.4 0.00 0.06 0.06 88 1020.4
20260906074003 61 121 2.6 4.3 0.00 0.06 0.06 88 1020.5
20260906073503 61 129 2.6 10.4 0.00 0.06 0.06 89 1020.6
20260906072503 60 119 1.7 7.8 0.00 0.06 0.06 92 1020.5
20260906072003 59 124 1.7 2.6 0.00 0.06 0.06 92 1020.4
20260906071003 59 68 0.9 2.6 0.00 0.06 0.06 93 1020.5
20260906070504 58 68 0.9 2.6 0.00 0.06 0.06 93 1020.4
20260906065503 58 64 1.7 2.6 0.00 0.06 0.06 93 1020.4
20260906065003 58 63 1.7 2.6 0.00 0.06 0.06 93 1020.3
20260906064003 57 71 1.7 2.6 0.00 0.06 0.06 93 1020.2
20260906063503 57 71 0.9 2.6 0.00 0.06 0.06 93 1020.2
20260906063003 57 72 0.9 2.6 0.00 0.06 0.06 93 1020.2
20260906062503 57 72 0.9 1.7 0.00 0.06 0.06 93 1020.3
20260906062003 56 72 0.9 1.7 0.00 0.06 0.06 92 1020.4
20260906061504 56 72 0.0 1.7 0.00 0.06 0.06 92 1020.5
20260906061003 56 72 0.9 2.6 0.00 0.06 0.06 92 1020.5
20260906060503 56 55 0.9 1.7 0.00 0.06 0.06 92 1020.5
20260906060004 56 54 0.0 2.6 0.00 0.06 0.06 92 1020.6
20260906055504 56 117 1.7 2.6 0.00 0.06 0.06 92 1020.5
20260906055004 56 121 1.7 2.6 0.00 0.06 0.06 92 1020.5
20260906054503 56 124 0.0 1.7 0.00 0.06 0.06 92 1020.5
20260906054003 56 124 0.0 0.0 0.00 0.06 0.06 92 1020.6
20260906053503 56 124 0.0 0.0 0.00 0.06 0.06 91 1020.6
20260906053003 56 125 0.0 0.0 0.00 0.06 0.06 91 1020.7
20260906052504 56 125 0.0 0.0 0.00 0.06 0.06 91 1020.8
20260906052004 56 125 0.0 0.0 0.00 0.06 0.06 91 1020.8
20260906051504 56 125 0.0 0.0 0.00 0.06 0.06 91 1020.9
20260906051004 56 125 0.0 0.0 0.00 0.06 0.06 91 1020.8
20260906050503 56 125 0.0 0.0 0.00 0.06 0.06 91 1020.8
20260906050004 56 125 0.0 0.0 0.01 0.06 0.06 91 1020.9
20260906045504 56 125 0.0 0.0 0.02 0.06 0.06 91 1021.0
20260906045004 56 124 0.0 1.7 0.02 0.06 0.06 91 1021.0
20260906043004 56 125 0.0 1.7 0.03 0.06 0.06 91 1021.3
20260906042504 56 124 0.9 2.6 0.04 0.06 0.06 91 1021.3
20260906042004 56 125 0.9 1.7 0.04 0.06 0.06 91 1021.3
20260906041004 56 125 1.7 2.6 0.05 0.06 0.06 90 1021.4
20260906040503 56 149 0.0 0.0 0.06 0.06 0.06 90 1021.6
20260906040003 56 149 0.0 0.0 0.05 0.06 0.06 90 1021.6
20260906035503 56 260 0.0 0.0 0.04 0.05 0.05 90 1021.8
20260906034503 56 260 0.0 0.0 0.04 0.05 0.05 90 1022.0
20260906034004 56 260 0.0 0.0 0.04 0.05 0.05 89 1022.2
20260906033504 56 260 0.0 0.0 0.03 0.04 0.04 89 1022.2
20260906033004 56 260 0.0 0.0 0.02 0.03 0.03 89 1022.3
20260906032504 56 260 0.0 0.0 0.02 0.02 0.02 89 1022.4
20260906032004 56 260 0.0 0.0 0.02 0.02 0.02 89 1022.4
20260906031503 56 260 0.0 0.0 0.02 0.02 0.02 89 1022.6
20260906031004 56 260 0.0 0.0 0.01 0.02 0.02 89 1022.7
20260906030503 56 260 0.0 0.0 0.00 0.01 0.01 89 1022.7
20260906030004 56 260 0.0 0.0 0.00 0.01 0.01 89 1022.7
20260906025003 56 260 0.0 0.0 0.00 0.01 0.01 88 1022.6
20260906024503 56 260 0.0 0.0 0.00 0.01 0.01 88 1022.7
20260906024005 56 260 0.0 0.0 0.00 0.01 0.01 88 1022.7
20260906023503 56 260 0.0 0.0 0.00 0.01 0.01 88 1022.8
20260906023004 56 260 0.0 0.0 0.00 0.01 0.01 88 1022.8
20260906022503 56 260 0.0 0.0 0.00 0.01 0.01 88 1022.9
20260906022004 56 260 0.0 0.0 0.00 0.01 0.01 88 1023.0
20260906021503 56 260 0.0 0.0 0.01 0.01 0.01 88 1023.0
20260906021005 56 260 0.0 0.0 0.01 0.01 0.01 88 1023.1
20260906020504 56 260 0.0 0.0 0.01 0.01 0.01 87 1023.1
20260906020003 56 260 0.0 0.0 0.01 0.01 0.01 87 1023.1
20260906015504 56 260 0.0 0.0 0.01 0.01 0.01 87 1023.1
20260906014504 56 260 0.0 0.0 0.01 0.01 0.01 87 1023.2
20260906014004 56 260 0.0 0.0 0.01 0.01 0.01 87 1023.3
20260906013503 56 260 0.0 0.0 0.01 0.01 0.01 87 1023.4
20260906013005 56 260 0.0 0.0 0.01 0.01 0.01 87 1023.4
20260906012504 56 260 0.0 0.0 0.01 0.01 0.01 87 1023.4
20260906012004 56 260 0.0 0.0 0.01 0.01 0.01 86 1023.5
20260906011503 56 260 0.0 0.0 0.00 0.00 0.00 86 1023.6
20260906011003 56 261 0.0 0.0 0.00 0.00 0.00 86 1023.6
20260906010503 56 261 0.0 0.0 0.00 0.00 0.00 86 1023.6
20260906005504 56 261 0.0 0.0 0.00 0.00 0.00 86 1023.8
20260906005004 56 260 0.0 0.0 0.00 0.00 0.00 86 1023.8
20260906004504 56 260 0.0 0.0 0.00 0.00 0.00 86 1023.8
20260906004004 56 260 0.0 0.0 0.00 0.00 0.00 85 1023.9
20260906003504 56 260 0.0 0.0 0.00 0.00 0.00 85 1023.9
20260906003003 56 260 0.0 0.0 0.00 0.00 0.00 85 1024.0
20260906002504 56 260 0.0 0.0 0.00 0.00 0.00 85 1024.1
20260906001504 56 260 0.0 0.0 0.00 0.00 0.00 85 1024.1
20260906000505 56 260 0.0 0.0 0.00 0.00 0.00 84 1024.2
20260905235003 56 260 0.0 0.0 0.00 0.00 0.00 84 1024.3
20260905234504 56 261 0.0 0.0 0.00 0.00 0.00 84 1024.3
20260905234004 56 260 0.0 0.0 0.00 0.00 0.00 84 1024.3
20260905233503 56 261 0.0 0.0 0.00 0.00 0.00 84 1024.3
20260905233004 56 261 0.0 0.0 0.00 0.00 0.00 84 1024.3
20260905232504 56 245 0.0 0.0 0.00 0.00 0.00 84 1024.4
20260905231504 56 245 0.0 0.0 0.00 0.00 0.00 83 1024.4
20260905231004 56 245 0.0 0.0 0.00 0.00 0.00 83 1024.4
20260905230505 56 245 0.0 0.0 0.00 0.00 0.00 83 1024.4
20260905230003 56 245 0.0 0.0 0.00 0.00 0.00 83 1024.4
20260905225503 56 245 0.0 0.0 0.00 0.00 0.00 83 1024.5
20260905225003 56 245 0.0 0.0 0.00 0.00 0.00 83 1024.5